TimeCDT,TemperatureF,Dew PointF,Humidity,Sea Level PressureIn,VisibilityMPH,Wind Direction,Wind SpeedMPH,Gust SpeedMPH,PrecipitationIn,Events,Conditions,WindDirDegrees,DateUTC
12:53 AM,64.9,60.1,84,30.10,10.0,Calm,Calm,-,N/A,,Clear,0,2013-08-19 05:53:00
1:53 AM,64.0,60.1,87,30.08,10.0,Calm,Calm,-,N/A,,Clear,0,2013-08-19 06:53:00
2:53 AM,63.0,59.0,87,30.06,10.0,SSE,3.5,-,N/A,,Clear,160,2013-08-19 07:53:00
3:53 AM,62.1,59.0,90,30.05,9.0,ESE,3.5,-,N/A,,Clear,120,2013-08-19 08:53:00
4:53 AM,62.1,59.0,90,30.05,9.0,Calm,Calm,-,N/A,,Clear,0,2013-08-19 09:53:00
5:53 AM,61.0,57.9,90,30.06,8.0,ESE,3.5,-,N/A,,Partly Cloudy,120,2013-08-19 10:53:00
6:53 AM,63.0,59.0,87,30.08,7.0,SE,3.5,-,N/A,,Scattered Clouds,130,2013-08-19 11:53:00
7:53 AM,64.9,61.0,87,30.08,8.0,SE,4.6,-,N/A,,Mostly Cloudy,130,2013-08-19 12:53:00
8:53 AM,69.1,63.0,81,30.09,10.0,SSE,6.9,-,N/A,,Scattered Clouds,160,2013-08-19 13:53:00
9:53 AM,75.0,64.0,69,30.09,10.0,SSE,11.5,-,N/A,,Clear,150,2013-08-19 14:53:00
10:53 AM,78.1,64.9,64,30.09,10.0,SSE,11.5,-,N/A,,Partly Cloudy,160,2013-08-19 15:53:00
11:53 AM,80.1,64.0,58,30.08,10.0,South,11.5,-,N/A,,Clear,170,2013-08-19 16:53:00
12:53 PM,82.0,64.9,56,30.06,10.0,South,11.5,-,N/A,,Partly Cloudy,180,2013-08-19 17:53:00
1:53 PM,84.0,63.0,49,30.05,10.0,SSE,15.0,19.6,N/A,,Clear,160,2013-08-19 18:53:00
2:53 PM,84.9,64.0,49,30.03,10.0,South,10.4,20.7,N/A,,Clear,180,2013-08-19 19:53:00
3:53 PM,84.0,64.0,51,30.01,10.0,SSW,12.7,-,N/A,,Clear,200,2013-08-19 20:53:00
4:53 PM,84.0,63.0,49,29.99,10.0,South,13.8,18.4,N/A,,Clear,180,2013-08-19 21:53:00
5:53 PM,82.9,64.9,54,29.99,10.0,South,10.4,-,N/A,,Clear,180,2013-08-19 22:53:00
6:53 PM,82.0,66.0,58,29.98,10.0,South,6.9,-,N/A,,Clear,180,2013-08-19 23:53:00
7:53 PM,78.1,66.0,66,29.98,10.0,SSE,5.8,-,N/A,,Clear,150,2013-08-20 00:53:00
8:53 PM,73.9,66.0,76,29.98,10.0,SE,5.8,-,N/A,,Clear,140,2013-08-20 01:53:00
9:53 PM,73.0,64.9,76,29.99,10.0,SSE,6.9,-,N/A,,Clear,150,2013-08-20 02:53:00
10:53 PM,72.0,64.0,76,29.99,10.0,SSE,6.9,-,N/A,,Clear,150,2013-08-20 03:53:00
11:53 PM,70.0,64.0,81,30.01,10.0,SSE,4.6,-,N/A,,Clear,160,2013-08-20 04:53:00